Погода в Знаменке

Россия / Кировская область     57°14′42″N   47°49′53″E
темп.,
°C
ветер,
м/с
пор.,
м/с
влажн.,
%
обл.,
%
осадки,
мм/ч
давл.,
гПа
погр.,
м
12 мая, ср
ср1200:00+12св35900 0.0 102865
03:00+11всв35890 0.0 102967
06:00+13св37750 0.0 1029179
09:00+20всв45625 0.0 1028470
12:00+24вюв44503 0.0 10271135
15:00+25вюв34428 0.0 10262142
18:00+20вюв346059 0.0 102654
21:00+17юв336616 0.0 102632
13 мая, чт
чт1300:00+15юв476740 0.0 102693
03:00+13юв227613 0.0 102619
06:00+16юв25719 0.0 1026138
09:00+22юв474874 0.0 1026751
12:00+23юв57405 0.0 10241439
15:00+24ююв6843100 0.0 10231750
18:00+20ююв5865100 0.1 1022384
21:00+16вюв4117289 0.1 1021229
14 мая, пт
пт1400:00+16ююв5137664 0.2 1020292
03:00+14ююв4108696 0.7 1020231
06:00+15ю48831 0.0 1021246
09:00+21ююз46665 0.0 1021719
12:00+24юз4653100 0.0 10201442
15:00+24юз454998 0.0 10201521
18:00+23ююз226414 0.0 101963
21:00+18ююв34835 0.1 101947
15 мая, сб
сб1500:00+16ю3883100 0.0 1018137
03:00+15ю3682100 0.0 1018114
06:00+17ю388088 0.0 1018184
09:00+23ю5859100 0.0 1017525
12:00+27ююз6103999 0.0 10171106
15:00+27ююз7123994 0.0 10161387
18:00+24ююз613465 0.0 1015433
21:00+18ю514655 0.0 1015283
16 мая, вс
вс1600:00+18ююз5155910 0.0 1015371
03:00+15ю4107289 0.0 1015158
06:00+17ю51564100 0.0 1015389
09:00+23ююз6125085 0.0 1014744
12:00+26ююз61142100 0.0 10141397
15:00+26юз6124533 0.0 10131605
18:00+23юз5115650 0.0 1013491
21:00+19зюз3775100 0.1 1013154